| time (UTC) | temp F | wind direction | speed MPH | gust MPH | rain 1hr in | rain 24hr in | rain mn in | humidity % | barometer mb |
| 20260505003017 | 53 | 174 | 6.0 | 11.0 | 0.01 | 0.02 | 0.02 | 39 | 1001.7 |
| 20260505001516 | 52 | 168 | 9.0 | 16.0 | 0.02 | 0.02 | 0.02 | 42 | 1001.8 |
| 20260505000027 | 51 | 360 | 4.0 | 20.0 | 0.01 | 0.01 | 0.01 | 42 | 1002.8 |
| 20260504234513 | 50 | 360 | 11.0 | 20.0 | 0.01 | 0.01 | 0.01 | 51 | 1003.0 |
| 20260504233017 | 50 | 360 | 5.0 | 13.0 | 0.01 | 0.01 | 0.01 | 51 | 1003.1 |
| 20260504231522 | 50 | 360 | 9.0 | 22.0 | 0.00 | 0.00 | 0.00 | 48 | 1003.4 |
| 20260504230007 | 51 | 360 | 9.0 | 21.0 | 0.00 | 0.00 | 0.00 | 47 | 1003.3 |
| 20260504224506 | 54 | 360 | 5.0 | 18.0 | 0.00 | 0.00 | 0.00 | 41 | 1002.4 |
| 20260504223005 | 55 | 360 | 7.0 | 17.0 | 0.00 | 0.00 | 0.00 | 34 | 1002.1 |
| 20260504221502 | 56 | 360 | 10.0 | 21.0 | 0.00 | 0.00 | 0.00 | 36 | 1001.9 |
| 20260504220005 | 59 | 183 | 9.0 | 16.0 | 0.00 | 0.00 | 0.00 | 31 | 1001.9 |
| 20260504214501 | 62 | 360 | 12.0 | 17.0 | 0.00 | 0.00 | 0.00 | 27 | 1001.9 |
| 20260504213004 | 63 | 360 | 1.0 | 13.0 | 0.00 | 0.00 | 0.00 | 20 | 1001.4 |
| 20260504211501 | 65 | 355 | 5.0 | 11.0 | 0.00 | 0.00 | 0.00 | 18 | 1001.5 |
| 20260504210109 | 65 | 355 | 6.0 | 12.0 | 0.00 | 0.00 | 0.00 | 23 | 1001.8 |
| 20260504204602 | 63 | 5 | 2.0 | 9.0 | 0.00 | 0.00 | 0.00 | 23 | 1002.0 |
| 20260504203054 | 62 | 355 | 3.0 | 8.0 | 0.00 | 0.00 | 0.00 | 23 | 1002.2 |
| 20260504200050 | 61 | 59 | 3.0 | 13.0 | 0.00 | 0.00 | 0.00 | 24 | 1002.7 |
| 20260504194604 | 62 | 56 | 3.0 | 15.0 | 0.00 | 0.00 | 0.00 | 20 | 1002.7 |
| 20260504193048 | 62 | 55 | 4.0 | 11.0 | 0.00 | 0.00 | 0.00 | 24 | 1002.7 |
| 20260504190113 | 64 | 360 | 6.0 | 18.0 | 0.00 | 0.00 | 0.00 | 19 | 1003.0 |
| 20260504184556 | 64 | 360 | 6.0 | 11.0 | 0.00 | 0.00 | 0.00 | 22 | 1002.7 |
| 20260504183047 | 66 | 360 | 3.0 | 13.0 | 0.00 | 0.00 | 0.00 | 19 | 1002.8 |
| 20260504180115 | 64 | 144 | 8.0 | 17.0 | 0.00 | 0.00 | 0.00 | 23 | 1002.9 |
| 20260504174542 | 63 | 355 | 1.0 | 9.0 | 0.00 | 0.00 | 0.00 | 19 | 1003.1 |
| 20260504173053 | 64 | 42 | 5.0 | 10.0 | 0.00 | 0.00 | 0.00 | 20 | 1003.1 |
| 20260504140105 | 40 | 360 | 0.0 | 0.0 | 0.00 | 0.00 | 0.00 | 52 | 1005.4 |
| 20260504044532 | 47 | 360 | 0.0 | 0.0 | 0.00 | 0.00 | 0.00 | 32 | 1006.0 |
| 20260504043026 | 48 | 360 | 0.0 | 0.0 | 0.00 | 0.00 | 0.00 | 30 | 1006.0 |
| 20260504040024 | 50 | 360 | 0.0 | 0.0 | 0.00 | 0.00 | 0.00 | 27 | 1005.9 |
| 20260504034531 | 52 | 360 | 0.0 | 0.0 | 0.00 | 0.00 | 0.00 | 26 | 1005.7 |
| 20260504033015 | 53 | 360 | 0.0 | 0.0 | 0.00 | 0.00 | 0.00 | 23 | 1005.8 |
| 20260504030004 | 55 | 360 | 1.0 | 3.0 | 0.00 | 0.00 | 0.00 | 22 | 1005.8 |
| 20260504024604 | 57 | 360 | 0.0 | 3.0 | 0.00 | 0.00 | 0.00 | 19 | 1005.6 |
| 20260504023055 | 58 | 360 | 2.0 | 4.0 | 0.00 | 0.00 | 0.00 | 15 | 1005.6 |
| 20260504020048 | 60 | 360 | 2.0 | 4.0 | 0.00 | 0.00 | 0.00 | 13 | 1005.6 |
| 20260504014544 | 61 | 360 | 0.0 | 4.0 | 0.00 | 0.00 | 0.00 | 13 | 1005.7 |
| 20260504013040 | 62 | 360 | 2.0 | 5.0 | 0.00 | 0.00 | 0.00 | 12 | 1005.8 |
| 20260504011640 | 63 | 336 | 1.0 | 4.0 | 0.00 | 0.00 | 0.00 | 10 | 1005.8 |
| 20260504010045 | 64 | 338 | 1.0 | 5.0 | 0.00 | 0.00 | 0.00 | 8 | 1005.8 |
| 20260504004537 | 64 | 327 | 1.0 | 5.0 | 0.00 | 0.00 | 0.00 | 6 | 1006.0 |